| time (UTC) | temp C | wind direction | speed KPH | gust KPH | rain 1hr cm | rain 24hr cm | rain mn cm | humidity % | barometer mb |
| 20260509150047 | 18 | 208 | 4.8 | 17.7 | 0.00 | 0.00 | 0.00 | 66 | 1003.5 |
| 20260509144542 | 17 | 188 | 8.0 | 16.1 | 0.00 | 0.00 | 0.00 | 68 | 1003.5 |
| 20260509143051 | 17 | 218 | 4.8 | 14.5 | 0.00 | 0.00 | 0.00 | 71 | 1003.5 |
| 20260509141546 | 16 | 160 | 6.4 | 20.9 | 0.00 | 0.00 | 0.00 | 71 | 1003.4 |
| 20260509140052 | 16 | 227 | 4.8 | 25.7 | 0.00 | 0.00 | 0.00 | 72 | 1003.5 |
| 20260509134542 | 16 | 187 | 6.4 | 17.7 | 0.00 | 0.00 | 0.00 | 73 | 1003.3 |
| 20260509133046 | 15 | 234 | 6.4 | 16.1 | 0.00 | 0.00 | 0.00 | 74 | 1003.4 |
| 20260509131544 | 15 | 227 | 8.0 | 16.1 | 0.00 | 0.00 | 0.00 | 76 | 1003.5 |
| 20260509130041 | 14 | 83 | 4.8 | 22.5 | 0.00 | 0.00 | 0.00 | 79 | 1003.3 |
| 20260509124543 | 13 | 219 | 6.4 | 17.7 | 0.00 | 0.00 | 0.00 | 80 | 1003.4 |
| 20260509123043 | 13 | 247 | 4.8 | 19.3 | 0.00 | 0.00 | 0.00 | 83 | 1003.2 |
| 20260509121545 | 12 | 134 | 4.8 | 16.1 | 0.00 | 0.00 | 0.00 | 85 | 1003.2 |
| 20260509114548 | 11 | 188 | 6.4 | 16.1 | 0.00 | 0.00 | 0.00 | 88 | 1003.1 |
| 20260509113043 | 11 | 219 | 4.8 | 9.7 | 0.00 | 0.00 | 0.00 | 89 | 1003.0 |
| 20260509111542 | 11 | 261 | 3.2 | 11.3 | 0.00 | 0.00 | 0.00 | 90 | 1003.0 |
| 20260509110045 | 11 | 217 | 4.8 | 11.3 | 0.00 | 0.00 | 0.00 | 90 | 1002.6 |
| 20260509104543 | 11 | 223 | 4.8 | 14.5 | 0.00 | 0.03 | 0.00 | 90 | 1002.8 |
| 20260509103042 | 11 | 218 | 4.8 | 16.1 | 0.00 | 0.03 | 0.00 | 89 | 1002.8 |
| 20260509101552 | 11 | 186 | 1.6 | 9.7 | 0.00 | 0.03 | 0.00 | 88 | 1002.9 |
| 20260509100044 | 11 | 229 | 3.2 | 8.0 | 0.00 | 0.03 | 0.00 | 88 | 1003.0 |
| 20260509094548 | 12 | 241 | 1.6 | 9.7 | 0.00 | 0.03 | 0.00 | 87 | 1003.2 |
| 20260509093043 | 12 | 229 | 1.6 | 14.5 | 0.00 | 0.03 | 0.00 | 87 | 1003.5 |
| 20260509091544 | 11 | 222 | 4.8 | 14.5 | 0.00 | 0.03 | 0.00 | 88 | 1003.4 |
| 20260509090044 | 11 | 259 | 6.4 | 14.5 | 0.00 | 0.03 | 0.00 | 87 | 1003.5 |
| 20260509084547 | 12 | 181 | 1.6 | 11.3 | 0.00 | 0.03 | 0.00 | 87 | 1003.6 |
| 20260509083048 | 12 | 238 | 4.8 | 14.5 | 0.00 | 0.03 | 0.00 | 87 | 1003.6 |
| 20260509081543 | 12 | 214 | 4.8 | 14.5 | 0.00 | 0.03 | 0.00 | 86 | 1003.4 |
| 20260509080048 | 12 | 212 | 4.8 | 16.1 | 0.00 | 0.03 | 0.00 | 85 | 1003.5 |
| 20260509074551 | 12 | 207 | 3.2 | 16.1 | 0.00 | 0.03 | 0.00 | 84 | 1003.6 |
| 20260509073114 | 12 | 222 | 3.2 | 12.9 | 0.00 | 0.03 | 0.00 | 84 | 1003.8 |
| 20260509071544 | 12 | 214 | 6.4 | 16.1 | 0.00 | 0.03 | 0.00 | 83 | 1003.9 |
| 20260509070047 | 12 | 275 | 3.2 | 12.9 | 0.00 | 0.03 | 0.00 | 83 | 1004.2 |
| 20260509064543 | 12 | 217 | 4.8 | 16.1 | 0.00 | 0.03 | 0.00 | 82 | 1004.3 |
| 20260509063040 | 12 | 0 | 1.6 | 12.9 | 0.00 | 0.03 | 0.00 | 82 | 1004.4 |
| 20260509061544 | 12 | 165 | 3.2 | 12.9 | 0.00 | 0.03 | 0.00 | 82 | 1004.5 |
| 20260509060058 | 13 | 227 | 4.8 | 14.5 | 0.00 | 0.03 | 0.00 | 82 | 1004.8 |
| 20260509054555 | 13 | 254 | 4.8 | 16.1 | 0.00 | 0.03 | 0.00 | 82 | 1004.8 |
| 20260509053042 | 13 | 206 | 4.8 | 19.3 | 0.00 | 0.03 | 0.00 | 80 | 1004.8 |
| 20260509051545 | 13 | 208 | 3.2 | 16.1 | 0.00 | 0.03 | 0.00 | 80 | 1004.7 |
| 20260509050050 | 13 | 266 | 3.2 | 12.9 | 0.00 | 0.03 | 0.00 | 78 | 1004.8 |
| 20260509044546 | 13 | 239 | 6.4 | 12.9 | 0.00 | 0.03 | 0.03 | 77 | 1004.8 |
| 20260509043050 | 13 | 269 | 4.8 | 19.3 | 0.00 | 0.03 | 0.03 | 76 | 1004.9 |
| 20260509041544 | 14 | 214 | 3.2 | 14.5 | 0.00 | 0.03 | 0.03 | 73 | 1004.9 |
| 20260509034548 | 14 | 211 | 4.8 | 12.9 | 0.00 | 0.03 | 0.03 | 72 | 1005.0 |
| 20260509033047 | 13 | 242 | 3.2 | 9.7 | 0.00 | 0.03 | 0.03 | 73 | 1005.1 |
| 20260509031548 | 13 | 221 | 1.6 | 8.0 | 0.00 | 0.03 | 0.03 | 72 | 1005.2 |
| 20260509030047 | 12 | 162 | 1.6 | 8.0 | 0.00 | 0.03 | 0.03 | 70 | 1005.1 |
| 20260509024544 | 12 | 166 | 1.6 | 9.7 | 0.00 | 0.03 | 0.03 | 69 | 1005.3 |
| 20260509023044 | 12 | 147 | 3.2 | 4.8 | 0.00 | 0.03 | 0.03 | 68 | 1005.3 |
| 20260509021545 | 13 | 150 | 1.6 | 4.8 | 0.00 | 0.03 | 0.03 | 68 | 1005.3 |
| 20260509020044 | 13 | 138 | 3.2 | 6.4 | 0.00 | 0.03 | 0.03 | 67 | 1005.3 |
| 20260509014544 | 13 | 129 | 1.6 | 6.4 | 0.00 | 0.03 | 0.03 | 66 | 1005.2 |
| 20260509013051 | 13 | 152 | 3.2 | 9.7 | 0.00 | 0.03 | 0.03 | 65 | 1005.2 |
| 20260509011556 | 13 | 164 | 3.2 | 6.4 | 0.00 | 0.03 | 0.03 | 64 | 1005.1 |
| 20260509010049 | 14 | 120 | 1.6 | 6.4 | 0.00 | 0.03 | 0.03 | 63 | 1005.1 |
| 20260509004604 | 14 | 109 | 4.8 | 12.9 | 0.00 | 0.03 | 0.03 | 62 | 1005.2 |
| 20260509003044 | 15 | 135 | 6.4 | 14.5 | 0.00 | 0.03 | 0.03 | 61 | 1005.3 |
| 20260509001549 | 15 | 85 | 1.6 | 12.9 | 0.00 | 0.03 | 0.03 | 61 | 1005.3 |
| 20260509000042 | 15 | 84 | 3.2 | 12.9 | 0.00 | 0.03 | 0.03 | 62 | 1005.4 |
| 20260508234548 | 15 | 124 | 3.2 | 12.9 | 0.00 | 0.03 | 0.03 | 62 | 1005.5 |
| 20260508233042 | 15 | 133 | 4.8 | 11.3 | 0.00 | 0.03 | 0.03 | 63 | 1005.5 |
| 20260508231546 | 15 | 117 | 3.2 | 12.9 | 0.00 | 0.03 | 0.03 | 63 | 1005.5 |
| 20260508230044 | 15 | 86 | 3.2 | 12.9 | 0.00 | 0.03 | 0.03 | 63 | 1005.6 |
| 20260508224544 | 15 | 122 | 6.4 | 14.5 | 0.00 | 0.05 | 0.03 | 65 | 1005.7 |
| 20260508223049 | 15 | 105 | 4.8 | 16.1 | 0.00 | 0.05 | 0.03 | 66 | 1005.7 |
| 20260508221549 | 16 | 120 | 6.4 | 17.7 | 0.00 | 0.05 | 0.03 | 66 | 1005.6 |
| 20260508220046 | 16 | 21 | 4.8 | 17.7 | 0.00 | 0.05 | 0.03 | 65 | 1005.7 |
| 20260508214554 | 16 | 103 | 8.0 | 24.1 | 0.00 | 0.20 | 0.03 | 62 | 1005.8 |
| 20260508213044 | 17 | 123 | 6.4 | 17.7 | 0.00 | 0.20 | 0.03 | 61 | 1005.7 |
| 20260508211550 | 17 | 159 | 4.8 | 19.3 | 0.00 | 0.20 | 0.03 | 59 | 1005.8 |
| 20260508210049 | 17 | 136 | 8.0 | 19.3 | 0.00 | 0.20 | 0.03 | 59 | 1005.8 |
| 20260508204547 | 18 | 128 | 8.0 | 27.4 | 0.00 | 0.20 | 0.03 | 59 | 1005.8 |
| 20260508203051 | 18 | 69 | 4.8 | 19.3 | 0.00 | 0.20 | 0.03 | 54 | 1006.1 |
| 20260508201544 | 19 | 124 | 8.0 | 20.9 | 0.00 | 0.20 | 0.03 | 54 | 1006.5 |
| 20260508200045 | 18 | 235 | 8.0 | 19.3 | 0.00 | 0.20 | 0.03 | 54 | 1006.8 |
| 20260508194545 | 18 | 145 | 8.0 | 24.1 | 0.00 | 0.20 | 0.03 | 55 | 1006.8 |
| 20260508193055 | 18 | 188 | 11.3 | 25.7 | 0.00 | 0.20 | 0.03 | 56 | 1006.9 |
| 20260508191547 | 18 | 163 | 6.4 | 16.1 | 0.00 | 0.20 | 0.03 | 53 | 1007.1 |
| 20260508190044 | 18 | 192 | 4.8 | 16.1 | 0.00 | 0.20 | 0.03 | 52 | 1007.3 |
| 20260508184550 | 18 | 98 | 3.2 | 11.3 | 0.00 | 0.20 | 0.03 | 52 | 1007.4 |
| 20260508183047 | 18 | 120 | 3.2 | 17.7 | 0.00 | 0.20 | 0.03 | 52 | 1007.6 |
| 20260508181559 | 19 | 153 | 6.4 | 20.9 | 0.00 | 0.20 | 0.03 | 52 | 1007.7 |
| 20260508180044 | 19 | 171 | 3.2 | 14.5 | 0.00 | 0.20 | 0.03 | 49 | 1007.8 |
| 20260508174547 | 18 | 80 | 1.6 | 9.7 | 0.00 | 0.20 | 0.03 | 54 | 1008.2 |
| 20260508173040 | 18 | 181 | 1.6 | 14.5 | 0.00 | 0.20 | 0.03 | 51 | 1008.6 |
| 20260508171545 | 18 | 201 | 4.8 | 14.5 | 0.00 | 0.20 | 0.03 | 51 | 1008.9 |
| 20260508170045 | 17 | 135 | 3.2 | 14.5 | 0.00 | 0.20 | 0.03 | 49 | 1009.3 |
| 20260508164546 | 17 | 140 | 1.6 | 12.9 | 0.00 | 0.20 | 0.03 | 43 | 1009.3 |
| 20260508163048 | 18 | 147 | 1.6 | 12.9 | 0.00 | 0.20 | 0.03 | 41 | 1009.6 |
| 20260508161545 | 18 | 257 | 4.8 | 14.5 | 0.00 | 0.20 | 0.03 | 39 | 1009.7 |
| 20260508160105 | 17 | 118 | 3.2 | 14.5 | 0.00 | 0.20 | 0.03 | 41 | 1009.8 |
| 20260508154544 | 16 | 127 | 6.4 | 11.3 | 0.00 | 0.20 | 0.03 | 44 | 1009.8 |
| 20260508153047 | 16 | 186 | 4.8 | 14.5 | 0.00 | 0.20 | 0.03 | 50 | 1010.1 |
| 20260508151546 | 15 | 177 | 4.8 | 12.9 | 0.00 | 0.20 | 0.03 | 53 | 1010.1 |